User: anonymous   Login
Location: Unspecified
(0.0000°N, 0.0000°E)
Time: 05:20:33
(UTC+00:00)
Language:

CLOUDSAT - Orbit

View from above orbital plane
View from above orbital plane
View from above satellite
View from above satellite

Ground track
Ground track

The orbit data is extracted from the following two-line orbital elements,

1 29107U 06016A   18146.82879658  .00000079  00000-0  25593-4 0  9999
2 29107  98.2408  91.8177 0006823 264.8971  95.1451 14.61346575642505
Epoch (UTC): 26 May 2018 19:53:28
Eccentricity: 0.0006823
inclination: 98.2408°
perigee height: 684 km
apogee height: 693 km
right ascension of ascending node: 91.8177°
argument of perigee: 264.8971°
revolutions per day: 14.61346575
mean anomaly at epoch: 95.1451°
orbit number at epoch: 64250

The dashed part of the orbit path shows where the satellite is in the earth's shadow,  

DLR